RH
77 76 75 82 80 82 76 78 65 72 74 76 50 24 47 76 86 86 94 98 82 77 92 75 56 62 66 66 79 74 79 50 80
69 80 80 80 78 84 83 74 71 70 67 75 55 30 33 80 89 87 91 88 79 61 90 82 65 43 53 68 82 80 84 74 81
65 76 82 82 78 86 86 79 78 63 71 75 73 41 42 86 93 93 92 81 75 61 80 85 72 60 33 59 84 85 86 75 78
63 70 78 82 83 86 87 82 78 66 55 59 78 72 38 90 94 97 98 82 64 56 75 87 80 64 21 43 80 88 81 80 76
67 72 74 79 84 87 90 86 85 83 63 55 73 71 46 88 95 97 97 59 33 47 70 80 82 66 14 22 75 85 84 83 81
75 78 74 71 84 86 89 88 93 80 75 70 77 65 45 47 70 91 60 59 34 28 68 76 82 72 43 20 60 78 83 83 80
88 80 76 73 76 80 85 92 90 92 86 89 90 67 47 58 54 89 76 80 45 24 48 74 78 76 70 41 35 73 81 83 86
81 79 77 75 78 80 80 86 96 100 94 87 85 84 50 61 88 92 84 84 83 68 36 63 73 78 74 61 27 52 76 82 86
97 94 81 75 78 79 79 82 87 94 100 92 86 80 78 63 93 91 80 83 85 77 68 45 66 80 80 65 35 31 79 80 84
78 79 80 78 81 82 80 82 83 87 90 97 94 86 83 73 79 90 84 77 83 78 77 69 49 69 78 61 26 25 59 69 72
70 69 74 78 79 80 81 81 81 83 86 93 98 94 85 86 87 83 83 90 88 83 79 80 69 71 71 44 24 19 33 56 54
75 73 74 78 79 82 84 84 87 87 87 94 100 99 93 92 90 87 83 87 91 89 87 82 70 73 71 51 44 26 23 36 38
78 74 77 80 86 88 93 94 96 99 97 100 99 98 97 100 97 90 89 93 96 94 91 87 75 66 74 72 84 72 41 28 25
77 77 79 84 90 91 92 92 92 100 100 100 100 100 99 100 98 97 92 87 91 96 91 89 81 42 53 74 84 95 86 64 81
84 78 80 86 92 94 92 89 89 99 100 100 99 100 100 100 100 98 94 91 87 93 92 90 90 64 68 86 86 89 90 90 87
95 98 100 99 91 96 93 95 98 100 100 98 100 100 100 100 98 97 99 94 90 91 87 91 89 84 79 87 86 83 88 97 90
100 99 100 100 99 99 97 99 99 100 99 99 100 100 99 96 99 95 92 88 88 99 92 93 91 90 79 82 86 87 87 95 94
98 100 100 100 99 100 100 99 99 98 100 99 98 98 98 99 99 100 100 97 94 98 92 96 98 96 83 84 90 93 99 98 99
100 98 100 99 98 98 99 100 100 99 98 100 100 93 96 96 98 99 99 95 95 93 83 91 97 99 98 95 93 100 93 100 100
92 100 100 98 100 100 100 99 99 100 99 96 94 98 98 92 92 98 100 99 98 100 100 98 95 99 99 100 99 99 100 99 97
Wind_Speed
19 21 22 22 22 23 23 22 20 18 19 18 17 17 25 25 17 17 19 16 19 19 19 17 17 19 20 24 22 24 25 25 25
19 21 22 23 22 22 24 28 27 20 19 19 17 17 22 18 16 17 18 19 19 20 18 17 16 17 20 23 24 23 23 24 22
19 20 21 22 22 23 23 28 28 27 21 19 18 18 21 20 17 18 18 21 20 21 17 16 15 16 20 24 24 22 22 23 23
19 20 21 22 22 23 25 25 27 28 28 20 19 19 20 18 17 18 18 21 21 22 19 16 14 16 21 25 24 22 22 22 23
19 20 21 22 23 24 23 27 25 24 29 24 20 21 23 19 20 18 17 19 19 23 21 16 14 17 20 25 26 23 22 22 23
21 22 21 22 23 23 23 26 23 26 26 28 24 23 25 25 22 19 18 17 17 23 25 20 16 17 19 21 26 25 23 22 22
21 23 22 22 22 23 23 22 24 28 29 26 23 25 27 25 26 19 20 19 18 22 27 23 20 17 18 19 24 26 23 24 23
22 23 24 24 23 24 24 24 25 28 30 30 30 27 29 25 21 20 23 19 19 19 24 25 21 19 18 18 22 26 25 25 24
18 20 24 25 26 26 26 26 25 28 32 32 35 34 28 28 21 21 26 24 23 20 20 25 24 21 19 18 21 28 28 27 26
24 24 25 24 25 26 27 27 27 28 31 35 40 42 40 36 29 24 28 26 25 24 22 23 25 23 21 19 21 30 31 28 28
24 23 24 25 25 25 26 27 28 29 31 35 38 46 44 40 37 31 29 29 27 26 24 23 25 25 24 22 24 28 31 30 27
23 23 23 24 24 25 27 27 27 28 30 34 40 45 43 40 38 34 30 29 29 27 25 23 23 28 27 26 26 26 29 30 27
23 22 22 22 23 24 25 25 27 29 31 34 39 42 46 39 38 36 35 30 28 28 28 24 23 30 30 30 28 27 28 29 29
22 21 21 22 23 23 23 22 24 30 39 42 43 44 39 41 40 37 36 35 31 29 30 28 25 29 33 32 32 30 30 30 30
23 21 19 20 22 23 22 21 16 24 33 40 39 34 44 44 39 35 35 37 38 32 31 31 29 31 35 36 35 34 34 32 33
24 22 21 20 20 22 22 24 23 27 33 34 36 36 32 27 31 32 36 38 36 34 35 34 34 34 34 38 38 37 39 37 36
26 27 24 23 23 27 26 29 29 27 29 30 32 17 22 26 31 34 33 34 35 29 36 37 36 37 39 40 40 42 42 41 40
27 28 28 30 27 30 30 32 33 31 32 32 19 11 9 24 31 33 32 37 38 35 27 35 37 38 43 48 46 55 43 43 45
25 24 27 35 34 32 29 31 32 31 35 34 32 20 13 10 11 27 34 30 29 30 33 35 39 43 45 52 50 40 40 46 45
22 22 26 24 29 32 31 31 32 31 32 34 33 25 21 17 14 19 27 29 24 27 24 20 11 18 44 34 31 50 41 41 34
Wind_Direction
195 190 190 188 185 183 180 174 182 178 173 169 161 161 167 162 153 148 152 146 145 146 146 136 134 143 134 134 128 129 128 127 123
198 196 194 193 192 192 194 173 169 182 181 181 174 164 160 157 162 160 151 161 161 154 154 145 138 141 142 141 133 132 131 132 129
196 199 197 197 195 193 192 180 180 178 182 187 185 181 174 162 163 164 159 168 169 157 158 153 144 141 150 148 138 134 134 135 134
197 199 200 198 198 199 191 192 185 184 183 194 197 195 187 171 170 163 168 173 173 163 160 165 154 146 152 153 147 138 140 138 137
197 198 200 201 203 203 206 193 193 185 186 192 202 202 192 180 178 169 175 170 176 171 166 171 164 149 148 159 157 145 145 142 140
201 199 201 199 204 208 211 204 214 192 190 193 200 201 197 196 188 183 190 185 185 176 169 171 178 160 150 157 162 155 154 149 148
203 202 201 203 204 206 212 211 207 202 198 200 198 201 199 197 197 193 189 190 182 178 178 175 184 183 166 163 168 165 160 159 153
206 203 202 202 204 207 207 212 210 209 204 197 198 199 203 200 195 196 193 190 189 180 185 182 192 191 184 176 175 176 166 170 164
204 204 205 207 206 207 208 212 212 209 212 207 200 196 208 207 199 204 195 192 197 200 185 193 195 197 194 193 186 183 176 176 175
213 211 211 211 209 210 210 211 213 214 215 215 214 201 200 211 212 198 199 201 201 208 198 195 202 201 201 199 192 185 184 181 180
214 215 214 214 215 216 218 219 219 222 223 220 217 203 207 203 205 206 201 205 207 209 206 198 202 204 203 198 190 183 186 185 184
216 216 216 217 219 220 222 223 224 225 227 227 223 217 206 206 206 207 207 209 208 212 211 210 204 206 203 196 190 184 185 188 187
219 217 218 218 219 220 223 225 227 230 230 227 228 222 202 205 206 204 204 209 213 213 215 215 216 206 203 194 194 192 184 182 178
217 218 223 222 222 221 222 225 229 234 230 223 214 209 209 205 205 204 204 208 211 215 215 221 217 210 202 200 198 194 187 181 174
219 220 221 222 214 216 209 215 195 215 217 203 199 198 203 203 199 205 212 212 211 215 221 219 217 210 206 202 201 196 192 186 182
226 219 219 219 216 209 206 195 179 172 176 184 190 199 203 209 216 222 222 214 210 216 223 222 218 214 215 209 206 204 198 194 189
229 220 220 218 214 207 206 207 203 207 204 190 193 192 212 220 223 219 218 216 218 232 228 227 223 222 215 215 214 213 204 199 191
220 227 219 219 217 210 211 217 222 220 207 208 196 179 206 221 229 220 220 221 229 236 242 232 225 225 220 217 215 214 202 201 190
219 220 221 225 220 221 221 221 227 223 214 205 204 205 203 181 197 218 227 230 239 240 249 239 235 233 229 230 222 214 206 170 179
219 213 223 223 224 227 220 222 221 212 213 215 213 204 206 209 191 195 196 214 215 194 180 186 204 237 216 205 212 189 168 176 182